Terug naar catalogus

COSMOS 1275 DEB

ActiefPO
NORAD 12725·DEBRIS·🇷🇺 Russia

Gelanceerd Jun 4, 1981 vanaf Plesetsk Cosmodrome

Loading…

Volgende Passages (komende 24 uur)

TLE

VersSource: Space-Track

Epoch: Sep 14, 2026, 09:30 UTC

1 12725U 81053BS  26257.39606635  .00000970  00000-0  80505-3 0  9991
2 12725  83.1337 268.8027 0092754 112.3479 315.3652 13.85769015253922

Volg COSMOS 1275 DEB in realtime met AllMySat

Download on the App Store